#timestamp,LO_Frequency,Hit,StdDev 
1544342415.6,286046996.6,N
1544342435.4,286046997.5,N
1544342455.3,286046996.8,N
1544342475.1,286046997.8,N
1544342495.8,286046999.0,N
1544342515.7,286046999.0,N
1544342535.5,286047000.7,N
1544342555.4,286047004.0,N
1544342605.2,286047002.7,E
1544342615.1,286047001.0,N
1544342635.9,286046997.9,P
1544342655.7,286046997.7,N
1544342675.6,286046997.9,N
1544342695.4,286046995.1,Y
1544342715.2,286047000.5,P
1544342735.1,286046998.3,N
1544342736.0,286046998.3,N
1544342755.8,286046996.8,Y
1544342775.7,286047002.3,P
1544342795.5,286047000.6,N
1544342815.3,286047002.0,N
1544342835.2,286047002.0,N
1544342855.0,286047002.6,N
1544342855.9,286047002.6,N
1544342875.8,286047000.8,N
1544342895.6,286047000.7,N
1544342915.4,286047000.6,N
1544342935.3,286046999.9,N
1544342955.1,286047001.3,N
1544342975.9,286047001.9,N
1544342995.7,286047000.1,N
1544343015.5,286047002.6,N
1544343035.4,286047002.5,N
1544343055.2,286047002.3,N
1544343075.0,286047002.7,N
1544343075.9,286047002.7,N
1544343095.8,286047000.0,N
1544343115.6,286047001.1,N
1544343135.5,286047001.1,N
1544343155.3,286046998.8,N
1544343175.1,286046999.2,N
1544343195.9,286047000.4,N
1544343215.7,286047002.7,N
1544343235.5,286047000.5,N
1544343255.4,286046998.3,N
1544343275.2,286046997.5,N
1544343295.1,286046997.3,N
1544343296.0,286046997.3,N
1544343315.8,286046998.7,N
1544343335.6,286046998.5,N
1544343355.5,286047000.7,N
1544343375.3,286047002.8,N
1544343395.1,286047001.9,N
1544343415.9,286047001.9,N
1544343435.7,286047000.1,N
1544343455.6,286047000.4,N
1544343475.4,286047001.2,N
1544343495.2,286046998.7,N
1544343515.1,286046998.3,N
1544343516.0,286046998.3,N
1544343535.8,286047000.9,N
1544343555.7,286047002.5,N
1544343575.5,286047001.8,N
1544343595.3,286047002.0,N
1544343615.2,286047000.3,N
1544343635.9,286047000.9,N
1544343655.7,286047000.4,N
1544343675.6,286046999.3,N
1544343695.4,286046997.2,N
1544343715.3,286046998.8,N
1544343735.1,286047002.8,N
1544343736.0,286047002.8,N
1544343755.8,286047001.7,N
1544343775.7,286047001.5,N
1544343795.5,286047001.4,N
1544343815.3,286047002.0,N
1544343835.2,286047003.4,N
1544343855.0,286047003.6,N
1544343855.9,286047003.6,N
1544343875.8,286047002.2,N
1544343895.6,286047001.4,N
1544343915.4,286047002.5,N
1544343935.3,286047001.5,N
1544343955.1,286047004.2,N
1544343975.9,286047004.2,N
1544343995.7,286047001.7,N
1544344015.5,286047003.3,N
1544344035.4,286047005.8,Y
1544344055.2,286047006.0,P
1544344075.0,286047003.2,N
1544344075.9,286047003.2,N
1544344095.8,286047003.5,N
1544344115.6,286047003.6,N
1544344135.5,286047003.2,N
1544344155.3,286047001.5,N
1544344175.1,286047001.3,N
1544344195.9,286047001.5,N
1544344215.7,286047004.4,Y
1544344235.6,286047000.8,P
1544344255.4,286046997.0,N
1544344275.2,286047001.1,N
1544344295.1,286046999.9,N
1544344296.0,286046999.9,N
1544344315.8,286047001.3,N
1544344335.6,286047002.5,N
1544344355.5,286047000.9,N
1544344375.3,286047002.6,N
1544344395.2,286046999.9,N
1544344415.9,286046998.2,N
1544344435.7,286047001.1,N
1544344455.6,286047000.7,N
1544344475.4,286047000.4,N
1544344495.3,286046999.0,N
1544344515.1,286046998.2,N
1544344516.0,286046998.2,N
1544344565.9,286047003.6,E
1544344575.8,286047004.1,N
1544344595.6,286047001.0,P
1544344615.4,286047001.2,N
1544344635.3,286046998.9,N
1544344655.1,286046999.9,N
1544344675.9,286047000.5,N
1544344695.7,286047000.4,N
1544344715.5,286047001.2,N
1544344735.4,286047002.6,N
1544344755.2,286047002.3,N
1544344775.1,286047000.8,N
1544344776.0,286047000.8,N
1544344795.8,286046999.0,N
1544344815.6,286046998.6,N
1544344835.5,286047000.2,N
1544344855.3,286047000.7,N
1544344875.1,286047001.0,N
1544344895.9,286046998.1,N
1544344915.7,286047002.7,N
1544344935.6,286047004.3,N
1544344955.4,286047004.0,N
1544344975.2,286047002.9,N
1544344995.1,286047001.5,N
1544344996.0,286047001.5,N
1544345015.8,286047001.9,N
1544345035.6,286047005.6,Y
1544345055.5,286047008.8,P
1544345075.3,286047009.5,N
1544345095.2,286047007.3,N
1544345115.9,286047005.8,N
1544345135.7,286047008.4,N
1544345155.6,286047007.8,N
1544345175.4,286047008.0,Y
1544345195.3,286047000.8,P
1544345215.1,286046999.5,N
1544345216.0,286046999.5,N
1544345235.8,286046998.6,N
1544345255.7,286047002.5,N
1544345275.5,286047003.9,N
1544345295.3,286047002.1,N
1544345315.2,286047000.0,N
1544345335.0,286047002.5,N
1544345335.9,286047002.5,N
1544345355.8,286047002.8,N
1544345375.6,286047000.6,N
1544345395.4,286047000.6,N
1544345415.3,286047000.2,N
1544345435.1,286047001.9,N
1544345455.9,286047003.9,N
1544345475.7,286047005.6,N
1544345495.5,286047005.2,N
1544345515.4,286047003.6,N
1544345535.2,286047004.4,N
1544345555.0,286047002.7,N
1544345555.9,286047002.7,N
1544345575.8,286047002.6,N
1544345595.6,286047000.9,N
1544345615.5,286046999.3,N
1544345635.3,286046999.3,N
1544345655.1,286046997.3,N
1544345675.9,286046998.9,N
1544345695.7,286047000.6,N
1544345715.5,286047001.0,N
1544345735.4,286047002.8,N
1544345755.2,286047002.6,N
1544345775.1,286047002.3,N
1544345776.0,286047002.3,N
1544345795.8,286047000.5,N
1544345815.6,286046998.4,N
1544345835.5,286047000.5,N
1544345855.3,286047000.5,N
1544345875.1,286047004.0,N
1544345895.9,286047001.6,N
1544345915.7,286047001.8,N
1544345935.6,286047004.1,N
1544345955.4,286047004.0,N
1544345975.2,286047003.3,N
1544345995.1,286047004.1,N
1544345996.0,286047004.1,N
